DW2516 Weather Reports


Display with metric or nautical units.
time (UTC)temp
F
wind
direction
speed
MPH
gust
MPH
rain 1hr
in
rain 24hr
in
rain mn
in
humidity
%
barometer
mb
20181121113150 41 170 1.0 4.0 0.00 0.21 0.02 96 1015.7
20181121111608 41 178 1.0 6.0 0.00 0.21 0.02 96 1015.8
20181121110130 41 160 0.0 4.0 0.00 0.21 0.02 96 1015.8
20181121104616 41 111 0.0 5.0 0.00 0.28 0.02 96 1015.8
20181121103131 41 175 2.0 5.0 0.00 0.28 0.02 96 1015.7
20181121101637 41 143 1.0 3.0 0.00 0.28 0.02 96 1015.6
20181121100125 40 202 0.0 3.0 0.00 0.28 0.02 96 1015.7
20181121094612 40 140 1.0 4.0 0.00 0.28 0.02 96 1015.7
20181121093117 40 171 1.0 4.0 0.00 0.28 0.02 96 1015.8
20181121091637 40 74 0.0 6.0 0.00 0.28 0.02 96 1016.1
20181121090123 40 157 1.0 7.0 0.00 0.28 0.02 96 1016.0
20181121084613 40 128 2.0 8.0 0.00 0.28 0.02 96 1015.9
20181121083104 40 143 1.0 5.0 0.00 0.28 0.02 96 1015.8
20181121081632 40 103 0.0 4.0 0.00 0.28 0.02 96 1015.8
20181121080056 40 187 0.0 4.0 0.00 0.28 0.02 96 1015.8
20181121074631 40 162 1.0 6.0 0.00 0.28 0.02 96 1015.6
20181121073059 39 128 2.0 6.0 0.01 0.28 0.02 96 1015.5
20181121071618 39 77 0.0 4.0 0.01 0.28 0.02 96 1015.4
20181121070038 39 130 0.0 7.0 0.01 0.28 0.02 96 1015.1
20181121054531 39 116 2.0 7.0 0.00 0.28 0.01 96 1014.6
20181121053016 39 82 3.0 8.0 0.00 0.28 0.01 96 1014.5
20181121051518 39 105 0.0 7.0 0.00 0.28 0.01 96 1014.5
20181121050028 39 163 0.0 4.0 0.01 0.28 0.01 96 1014.4
20181121044529 39 181 0.0 6.0 0.01 0.28 0.01 96 1014.5
20181121043018 39 128 0.0 4.0 0.01 0.28 0.01 96 1014.3
20181121041521 39 167 0.0 6.0 0.01 0.28 0.01 96 1014.3
20181121040023 39 169 0.0 5.0 0.00 0.28 0.00 96 1014.4
20181121034506 39 130 0.0 7.0 0.00 0.28 0.00 96 1014.3
20181121033006 38 204 1.0 7.0 0.00 0.28 0.00 96 1014.3
20181121031504 38 177 1.0 8.0 0.00 0.28 0.00 95 1014.3
20181121030317 38 142 0.0 11.0 0.00 0.28 0.00 95 1014.1
20181121024700 38 110 1.0 3.0 0.00 0.28 0.00 95 1013.9
20181121023126 38 122 0.0 9.0 0.00 0.28 0.00 95 1013.5
20181121021744 38 88 4.0 10.0 0.00 0.28 0.00 95 1013.4
20181121020122 38 92 3.0 8.0 0.00 0.28 0.00 95 1013.3
20181121014658 38 144 2.0 10.0 0.00 0.28 0.00 95 1013.5
20181121013132 38 116 3.0 8.0 0.00 0.28 0.00 95 1013.3
20181121010143 38 98 2.0 9.0 0.00 0.28 0.00 95 1013.4
20181121004650 38 111 4.0 9.0 0.00 0.28 0.00 95 1013.5
20181121003129 38 65 1.0 5.0 0.00 0.28 0.00 95 1013.6
20181121001528 38 156 1.0 5.0 0.00 0.28 0.00 95 1013.5
20181120234609 38 102 1.0 8.0 0.00 0.28 0.00 95 1013.7
20181120233142 38 156 2.0 6.0 0.01 0.28 0.00 95 1013.7
20181120231719 38 90 1.0 13.0 0.01 0.28 0.00 95 1013.7
20181120230122 38 148 1.0 6.0 0.01 0.28 0.00 95 1013.7
20181120224600 37 155 1.0 7.0 0.01 0.28 0.28 95 1013.7
20181120223131 37 161 2.0 8.0 0.00 0.27 0.27 95 1013.5
20181120221605 37 143 3.0 9.0 0.00 0.27 0.27 95 1013.5
20181120220118 37 122 3.0 9.0 0.00 0.27 0.27 95 1013.5
20181120214628 37 155 1.0 8.0 0.01 0.27 0.27 95 1013.2
20181120213142 37 130 0.0 5.0 0.01 0.27 0.27 95 1013.3
20181120211548 37 105 1.0 6.0 0.01 0.27 0.27 95 1013.2
20181120210142 37 147 0.0 5.0 0.01 0.27 0.27 95 1013.2
20181120204615 37 119 1.0 5.0 0.00 0.26 0.26 95 1013.0
20181120203100 37 121 2.0 9.0 0.00 0.26 0.26 95 1013.2
20181120201616 37 74 1.0 6.0 0.01 0.26 0.26 95 1013.1
20181120200050 37 124 0.0 9.0 0.01 0.26 0.26 95 1013.0
20181120194559 37 158 4.0 15.0 0.01 0.26 0.26 95 1012.9
20181120193052 37 94 1.0 8.0 0.01 0.26 0.26 95 1012.7
20181120191614 37 117 2.0 10.0 0.00 0.25 0.25 95 1012.5
20181120190044 37 205 3.0 13.0 0.00 0.25 0.25 95 1012.5
20181120184538 37 176 3.0 11.0 0.00 0.25 0.25 95 1012.4
20181120183108 37 58 3.0 11.0 0.00 0.25 0.25 95 1012.2
20181120181558 36 158 2.0 13.0 0.00 0.25 0.25 95 1012.3
20181120180040 36 78 3.0 12.0 0.00 0.25 0.25 95 1012.3
20181120174620 36 173 1.0 12.0 0.00 0.25 0.25 95 1012.3
20181120173054 36 70 3.0 11.0 0.01 0.25 0.25 95 1012.1
20181120171545 36 173 4.0 15.0 0.01 0.25 0.25 94 1012.0
20181120170038 36 140 4.0 12.0 0.01 0.25 0.25 94 1012.0
20181120164544 36 131 4.0 10.0 0.01 0.25 0.25 94 1011.9
20181120163033 35 74 2.0 13.0 0.01 0.24 0.24 94 1011.8
20181120161610 35 69 8.0 15.0 0.02 0.24 0.24 94 1011.9
20181120160043 35 86 7.0 15.0 0.02 0.24 0.24 94 1011.9
20181120154634 35 47 5.0 14.0 0.02 0.24 0.24 94 1011.8
20181120153142 35 52 6.0 17.0 0.02 0.24 0.24 94 1011.8
20181120151814 35 97 7.0 14.0 0.02 0.23 0.23 94 1011.9
20181120150240 34 99 5.0 14.0 0.02 0.22 0.22 94 1011.9
20181120144621 34 103 7.0 15.0 0.03 0.23 0.22 94 1011.9
20181120143151 34 95 7.0 14.0 0.03 0.22 0.21 94 1012.1
20181120141745 34 104 4.0 12.0 0.03 0.21 0.20 93 1012.2
20181120140142 34 175 3.0 7.0 0.03 0.20 0.20 93 1012.4
20181120134616 34 84 3.0 13.0 0.04 0.20 0.19 93 1012.5
20181120133159 33 138 5.0 14.0 0.04 0.19 0.18 93 1012.3
20181120131610 33 96 4.0 13.0 0.05 0.18 0.17 93 1012.2
20181120130119 33 186 3.0 17.0 0.06 0.17 0.17 93 1012.3
20181120124623 33 102 5.0 11.0 0.04 0.16 0.15 92 1012.2
20181120123051 33 94 4.0 11.0 0.03 0.15 0.14 92 1012.2
20181120121517 33 180 2.0 7.0 0.03 0.13 0.13 92 1012.2
20181120120218 33 138 3.0 8.0 0.03 0.12 0.11 91 1012.1
20181120114713 34 189 1.0 5.0 0.05 0.12 0.11 91 1012.6